FW2491 Weather Reports


Display with metric or nautical units.
time (UTC)temp
F
wind
direction
speed
MPH
gust
MPH
rain 1hr
in
rain 24hr
in
rain mn
in
humidity
%
barometer
mb
20260504034505 53 284 8.0 11.0 0.00 0.00 0.00 38 1017.8
20260504033007 54 281 9.0 13.0 0.00 0.00 0.00 37 1017.8
20260504031505 54 264 9.0 12.0 0.00 0.00 0.00 38 1017.8
20260504030004 53 272 10.0 13.0 0.00 0.00 0.00 38 1017.8
20260504024504 54 262 11.0 12.0 0.00 0.00 0.00 38 1017.8
20260504023003 54 277 9.0 11.0 0.00 0.00 0.00 39 1017.6
20260504021509 55 259 8.0 11.0 0.00 0.00 0.00 39 1017.5
20260504020002 56 251 7.0 11.0 0.00 0.00 0.00 38 1017.4
20260504014501 57 248 6.0 10.0 0.00 0.00 0.00 38 1017.2
20260504013100 57 261 6.0 9.0 0.00 0.00 0.00 38 1017.1
20260504011559 57 238 8.0 12.0 0.00 0.00 0.00 38 1016.9
20260504010059 58 267 6.0 11.0 0.00 0.00 0.00 38 1016.8
20260504004558 60 246 5.0 9.0 0.00 0.00 0.00 29 1016.7
20260504003100 61 234 4.0 7.0 0.00 0.00 0.00 27 1016.5
20260504001606 62 255 5.0 7.0 0.00 0.00 0.00 25 1016.4
20260504000059 63 266 7.0 9.0 0.00 0.00 0.00 25 1016.4
20260503234556 65 280 4.0 8.0 0.00 0.00 0.00 25 1016.4
20260503233101 66 284 3.0 10.0 0.00 0.00 0.00 24 1016.3
20260503231557 66 298 8.0 11.0 0.00 0.00 0.00 21 1016.3
20260503230055 67 291 8.0 13.0 0.00 0.00 0.00 21 1016.3
20260503224552 67 279 9.0 13.0 0.00 0.00 0.00 19 1016.3
20260503223052 68 286 8.0 13.0 0.00 0.00 0.00 19 1016.4
20260503221553 68 296 8.0 13.0 0.00 0.00 0.00 17 1016.5
20260503220050 69 205 2.0 6.0 0.00 0.00 0.00 25 1016.5
20260503214559 68 237 4.0 11.0 0.00 0.00 0.00 26 1016.5
20260503213048 67 184 6.0 15.0 0.00 0.00 0.00 27 1016.7
20260503211552 67 228 8.0 13.0 0.00 0.00 0.00 25 1016.8
20260503210045 68 240 10.0 17.0 0.00 0.00 0.00 27 1016.8
20260503204553 68 225 7.0 14.0 0.00 0.00 0.00 24 1016.9
20260503203048 67 251 6.0 12.0 0.00 0.00 0.00 21 1017.1
20260503201541 67 260 7.0 13.0 0.00 0.00 0.00 24 1017.5
20260503200040 66 200 8.0 15.0 0.00 0.00 0.00 26 1017.8
20260503194539 66 219 6.0 11.0 0.00 0.00 0.00 28 1018.0
20260503193036 66 130 5.0 14.0 0.00 0.00 0.00 27 1018.4
20260503191533 65 171 5.0 10.0 0.00 0.00 0.00 28 1018.6
20260503190045 65 213 7.0 12.0 0.00 0.00 0.00 25 1018.9
20260503184530 65 237 4.0 9.0 0.00 0.00 0.00 32 1019.1
20260503183026 63 200 6.0 15.0 0.00 0.00 0.00 27 1019.1
20260503181524 63 246 7.0 12.0 0.00 0.00 0.00 28 1019.2
20260503180035 63 217 5.0 12.0 0.00 0.00 0.00 25 1019.5
20260503174519 61 283 9.0 17.0 0.00 0.00 0.00 27 1019.5
20260503173019 61 312 9.0 15.0 0.00 0.00 0.00 28 1019.6
20260503171531 61 324 2.0 11.0 0.00 0.00 0.00 27 1019.9
20260503140108 54 355 1.0 5.0 0.00 0.00 0.00 47 1020.8
20260503081503 40 351 3.0 6.0 0.00 0.00 0.00 61 1017.6
20260503071606 42 304 3.0 5.0 0.00 0.00 0.00 58 1017.0
20260503054544 43 311 5.0 6.0 0.00 0.00 0.00 58 1017.0
20260503053039 43 305 4.0 5.0 0.00 0.00 0.00 57 1017.0
20260503051536 44 308 2.0 4.0 0.00 0.00 0.00 55 1016.9
20260503050034 45 306 2.0 5.0 0.00 0.00 0.00 54 1016.9
20260503044528 47 313 3.0 4.0 0.00 0.00 0.00 49 1016.9
20260503043025 48 309 2.0 3.0 0.00 0.00 0.00 44 1016.8
20260503041523 47 320 1.0 3.0 0.00 0.00 0.00 46 1016.7
20260503040021 48 320 2.0 4.0 0.00 0.00 0.00 46 1016.6